SWR3JS LSZH-EDDK

Flight info

Callsign SWR3JS
Flight time 0h 50m
Altitude 30000
Route DEGES Z1 SUDEN T844 UMDAS/N0463F240 T844 ASKIK T840 GULKO GULKO1C
Aircraft A359/H-SDE2E3GHIJ3J4J5LM1ORWXY/LB1D1

Departure

Time 2026-04-26 15:41
Airport Zürich Airport (LSZH)

Arrival

Time 2026-04-26 16:31
Airport Cologne Bonn Airport (EDDK)
Time Latitude Longitude Altitude Speed Heading
2026-04-26 14:48 47.45315 8.55940 1415 ft 0 kts
2026-04-26 14:52 47.45323 8.55942 1415 ft 0 kts
2026-04-26 14:53 47.45315 8.55940 1413 ft 0 kts
2026-04-26 15:00 47.45323 8.55942 1414 ft 0 kts
2026-04-26 15:01 47.45315 8.55940 1413 ft 0 kts
2026-04-26 15:24 47.45307 8.55940 1413 ft 4 kts 20°
2026-04-26 15:24 47.45296 8.55919 1418 ft 4 kts 57°
2026-04-26 15:24 47.45281 8.55899 1417 ft 4 kts 21°
2026-04-26 15:25 47.45260 8.55899 1419 ft 4 kts 314°
2026-04-26 15:25 47.45250 8.55931 1418 ft 4 kts 279°
2026-04-26 15:25 47.45248 8.55969 1415 ft 3 kts 275°
2026-04-26 15:25 47.45247 8.55973 1418 ft 4 kts 276°
2026-04-26 15:31 47.45254 8.55886 1420 ft 18 kts 276°
2026-04-26 15:31 47.45261 8.55788 1418 ft 0 kts 276°
2026-04-26 15:32 47.45263 8.55751 1415 ft 6 kts 276°
2026-04-26 15:32 47.45272 8.55628 1413 ft 12 kts 276°
2026-04-26 15:32 47.45299 8.55504 1415 ft 16 kts 295°
2026-04-26 15:33 47.45388 8.55390 1413 ft 18 kts 355°
2026-04-26 15:33 47.45421 8.55381 1415 ft 0 kts 346°
2026-04-26 15:34 47.45453 8.55352 1416 ft 13 kts 324°
2026-04-26 15:34 47.45572 8.55254 1411 ft 20 kts 335°
2026-04-26 15:34 47.45712 8.55159 1411 ft 24 kts 335°
2026-04-26 15:35 47.45863 8.55053 1408 ft 8 kts 334°
2026-04-26 15:35 47.45887 8.55036 1410 ft 13 kts 334°
2026-04-26 15:35 47.45998 8.54957 1408 ft 20 kts 335°
2026-04-26 15:35 47.46141 8.54855 1404 ft 25 kts 334°
2026-04-26 15:36 47.46303 8.54744 1402 ft 21 kts 336°
2026-04-26 15:36 47.46445 8.54648 1402 ft 23 kts 335°
2026-04-26 15:36 47.46595 8.54545 1402 ft 25 kts 335°
2026-04-26 15:36 47.46764 8.54432 1385 ft 29 kts 340°
2026-04-26 15:37 47.46923 8.54335 1386 ft 6 kts 335°
2026-04-26 15:37 47.46975 8.54299 1388 ft 12 kts 335°
2026-04-26 15:37 47.47069 8.54235 1396 ft 16 kts 335°
2026-04-26 15:37 47.47180 8.54159 1403 ft 19 kts 335°
2026-04-26 15:38 47.47308 8.54072 1399 ft 21 kts 335°
2026-04-26 15:38 47.47441 8.53980 1406 ft 21 kts 335°
2026-04-26 15:38 47.47560 8.53888 1405 ft 17 kts 321°
2026-04-26 15:38 47.47605 8.53750 1411 ft 13 kts 260°
2026-04-26 15:39 47.47569 8.53643 1410 ft 12 kts 232°
2026-04-26 15:39 47.47491 8.53616 1410 ft 14 kts 143°
2026-04-26 15:39 47.47408 8.53706 1409 ft 8 kts 156°
2026-04-26 15:39 47.47406 8.53707 1409 ft 0 kts 156°
2026-04-26 15:40 47.47405 8.53707 1409 ft 0 kts 156°
2026-04-26 15:40 47.47268 8.53801 1403 ft 61 kts 154°
2026-04-26 15:41 47.46644 8.54235 1382 ft 134 kts 154°
2026-04-26 15:41 47.45637 8.54876 1673 ft 170 kts 156°
2026-04-26 15:41 47.44576 8.55573 2665 ft 163 kts 149°
2026-04-26 15:41 47.43607 8.56448 3342 ft 171 kts 133°
2026-04-26 15:42 47.43205 8.58149 3704 ft 191 kts 83°
2026-04-26 15:42 47.43799 8.59956 4280 ft 203 kts 51°
2026-04-26 15:42 47.44660 8.61655 5039 ft 210 kts 56°
2026-04-26 15:42 47.45393 8.63550 5873 ft 216 kts 63°
2026-04-26 15:43 47.45924 8.65689 6657 ft 228 kts 78°
2026-04-26 15:43 47.46166 8.68142 7133 ft 256 kts 84°
2026-04-26 15:43 47.46413 8.73679 8708 ft 282 kts 87°
2026-04-26 15:44 47.46521 8.76618 9700 ft 289 kts 87°
2026-04-26 15:44 47.46607 8.82881 10977 ft 329 kts 98°
2026-04-26 15:44 47.46182 8.86322 11449 ft 350 kts 103°
2026-04-26 15:45 47.45100 8.93575 13003 ft 371 kts 103°
2026-04-26 15:45 47.44554 8.97338 13916 ft 377 kts 102°
2026-04-26 15:46 47.43453 9.05017 15585 ft 388 kts 102°
2026-04-26 15:46 47.42884 9.08952 16384 ft 394 kts 102°
2026-04-26 15:46 47.42307 9.12939 17224 ft 399 kts 102°
2026-04-26 15:46 47.41952 9.15606 17751 ft 403 kts 98°
2026-04-26 15:47 47.42043 9.21144 18765 ft 408 kts 75°
2026-04-26 15:47 47.44334 9.28849 20255 ft 415 kts 59°
2026-04-26 15:47 47.45769 9.32522 20989 ft 420 kts 57°
2026-04-26 15:48 47.47397 9.36133 21723 ft 424 kts 49°
2026-04-26 15:48 47.49457 9.39240 22485 ft 425 kts 36°
2026-04-26 15:48 47.51948 9.41570 23210 ft 425 kts 22°
2026-04-26 15:48 47.54676 9.43295 23781 ft 426 kts 18°
2026-04-26 15:49 47.57500 9.44647 24021 ft 428 kts
2026-04-26 15:49 47.60439 9.45276 24316 ft 427 kts
2026-04-26 15:49 47.63402 9.45550 24656 ft 428 kts 359°
2026-04-26 15:49 47.66385 9.45710 25007 ft 430 kts 358°
2026-04-26 15:50 47.69382 9.45825 25357 ft 432 kts 358°
2026-04-26 15:50 47.72398 9.45937 25700 ft 434 kts 358°
2026-04-26 15:50 47.75426 9.46061 26056 ft 437 kts 358°
2026-04-26 15:50 47.78477 9.46202 26421 ft 440 kts 359°
2026-04-26 15:51 47.81543 9.46349 26822 ft 442 kts 358°
2026-04-26 15:51 47.84632 9.46406 27253 ft 444 kts 357°
2026-04-26 15:51 47.87725 9.46387 27680 ft 446 kts 356°
2026-04-26 15:51 47.90841 9.46339 28106 ft 449 kts 356°
2026-04-26 15:52 47.93981 9.46291 28546 ft 452 kts 356°
2026-04-26 15:52 47.97135 9.46254 28980 ft 455 kts 356°
2026-04-26 15:52 48.00317 9.46229 29423 ft 459 kts 356°
2026-04-26 15:52 48.02438 9.46218 29729 ft 461 kts 356°
2026-04-26 15:53 48.06752 9.46206 30153 ft 466 kts 356°
2026-04-26 15:53 48.10044 9.46196 30198 ft 480 kts 357°
2026-04-26 15:53 48.13405 9.46187 30191 ft 483 kts 357°
2026-04-26 15:54 48.20078 9.46178 30187 ft 483 kts 357°
2026-04-26 15:54 48.26792 9.46190 30219 ft 482 kts 357°
2026-04-26 15:55 48.33465 9.46207 30196 ft 478 kts 357°
2026-04-26 15:55 48.40102 9.46214 30203 ft 477 kts 357°
2026-04-26 15:56 48.46737 9.46182 30200 ft 476 kts 355°
2026-04-26 15:56 48.53184 9.44424 30204 ft 469 kts 338°
2026-04-26 15:57 48.58913 9.39903 30205 ft 464 kts 324°
2026-04-26 15:57 48.64225 9.34371 30210 ft 463 kts 322°
2026-04-26 15:58 48.69463 9.28689 30215 ft 463 kts 322°
2026-04-26 15:58 48.74711 9.23009 30211 ft 463 kts 322°
2026-04-26 15:59 48.79965 9.17353 30206 ft 463 kts 323°
2026-04-26 15:59 48.85204 9.11724 30208 ft 461 kts 323°
2026-04-26 16:00 48.90886 9.07236 30212 ft 463 kts 337°
2026-04-26 16:00 48.96961 9.03968 30216 ft 463 kts 340°
2026-04-26 16:01 49.03100 9.00906 30217 ft 463 kts 340°
2026-04-26 16:01 49.09230 8.97858 30217 ft 464 kts 340°
2026-04-26 16:02 49.15355 8.94777 30216 ft 463 kts 340°
2026-04-26 16:02 49.21480 8.91670 30225 ft 464 kts 340°
2026-04-26 16:03 49.27603 8.88551 30221 ft 463 kts 340°
2026-04-26 16:03 49.33694 8.85442 30221 ft 460 kts 340°
2026-04-26 16:04 49.39735 8.82352 30220 ft 460 kts 340°
2026-04-26 16:04 49.45856 8.79503 30218 ft 460 kts 343°
2026-04-26 16:05 49.52031 8.76898 30219 ft 460 kts 343°
2026-04-26 16:05 49.58193 8.74267 30218 ft 460 kts 343°
2026-04-26 16:06 49.64343 8.71580 30236 ft 460 kts 342°
2026-04-26 16:06 49.70480 8.68869 30231 ft 458 kts 342°
2026-04-26 16:07 49.76603 8.66155 30241 ft 458 kts 342°
2026-04-26 16:07 49.81703 8.63892 30243 ft 458 kts 342°
2026-04-26 16:08 49.87830 8.61167 30259 ft 458 kts 342°
2026-04-26 16:08 49.93961 8.58433 30236 ft 458 kts 342°
2026-04-26 16:09 50.00091 8.55694 30242 ft 459 kts 342°
2026-04-26 16:09 50.06223 8.52944 30242 ft 459 kts 342°
2026-04-26 16:10 50.12283 8.49822 30244 ft 458 kts 339°
2026-04-26 16:10 50.18277 8.46462 30244 ft 458 kts 339°
2026-04-26 16:11 50.24283 8.43133 30250 ft 458 kts 339°
2026-04-26 16:11 50.30103 8.39287 30256 ft 457 kts 329°
2026-04-26 16:12 50.35547 8.34156 30269 ft 457 kts 327°
2026-04-26 16:12 50.43568 8.26134 30190 ft 453 kts 327°
2026-04-26 16:13 50.46196 8.23486 29440 ft 447 kts 326°
2026-04-26 16:13 50.48828 8.20832 28210 ft 454 kts 326°
2026-04-26 16:13 50.51500 8.18137 27234 ft 455 kts 326°
2026-04-26 16:13 50.54157 8.15459 26462 ft 452 kts 326°
2026-04-26 16:14 50.56792 8.12803 25740 ft 448 kts 326°
2026-04-26 16:14 50.59412 8.10163 25026 ft 445 kts 326°
2026-04-26 16:14 50.64573 8.04947 23570 ft 437 kts 326°
2026-04-26 16:15 50.67119 8.02360 22772 ft 433 kts 326°
2026-04-26 16:15 50.69639 7.99797 22008 ft 428 kts 326°
2026-04-26 16:15 50.72127 7.97263 21261 ft 424 kts 326°
2026-04-26 16:16 50.76529 7.91397 19758 ft 414 kts 308°
2026-04-26 16:16 50.78237 7.87766 19041 ft 410 kts 305°
2026-04-26 16:16 50.79876 7.84095 18291 ft 407 kts 304°
2026-04-26 16:16 50.81498 7.80445 17502 ft 403 kts 304°
2026-04-26 16:17 50.83101 7.76846 16768 ft 398 kts 305°
2026-04-26 16:17 50.84687 7.73289 16037 ft 393 kts 305°
2026-04-26 16:17 50.86256 7.69770 15316 ft 389 kts 305°
2026-04-26 16:17 50.87808 7.66286 14618 ft 385 kts 305°
2026-04-26 16:18 50.89342 7.62841 13900 ft 381 kts 305°
2026-04-26 16:18 50.92226 7.56349 12613 ft 347 kts 306°
2026-04-26 16:19 50.94902 7.50317 12050 ft 321 kts 306°
2026-04-26 16:19 50.96142 7.47517 11814 ft 308 kts 306°
2026-04-26 16:19 50.98359 7.42035 11423 ft 285 kts 294°
2026-04-26 16:20 50.98806 7.39032 11251 ft 277 kts 275°
2026-04-26 16:20 50.97764 7.33384 10860 ft 267 kts 238°
2026-04-26 16:20 50.96574 7.31168 10660 ft 262 kts 229°
2026-04-26 16:21 50.95105 7.29461 10341 ft 265 kts 208°
2026-04-26 16:21 50.93302 7.28792 9975 ft 270 kts 182°
2026-04-26 16:21 50.91468 7.29405 9540 ft 274 kts 156°
2026-04-26 16:21 50.89928 7.31212 8944 ft 280 kts 134°
2026-04-26 16:22 50.88526 7.33404 8416 ft 285 kts 135°
2026-04-26 16:22 50.87112 7.35532 8226 ft 275 kts 136°
2026-04-26 16:22 50.85742 7.37562 8080 ft 265 kts 136°
2026-04-26 16:22 50.84400 7.39522 7822 ft 260 kts 137°
2026-04-26 16:23 50.83077 7.41438 7407 ft 254 kts 137°
2026-04-26 16:23 50.81777 7.43313 6869 ft 252 kts 137°
2026-04-26 16:23 50.80491 7.45171 6416 ft 250 kts 137°
2026-04-26 16:23 50.79204 7.47017 6261 ft 250 kts 137°
2026-04-26 16:24 50.77913 7.48865 6192 ft 250 kts 137°
2026-04-26 16:24 50.76622 7.50716 5690 ft 250 kts 137°
2026-04-26 16:24 50.75351 7.52523 5212 ft 242 kts 139°
2026-04-26 16:24 50.73872 7.53698 4640 ft 238 kts 169°
2026-04-26 16:25 50.72271 7.53546 4054 ft 235 kts 200°
2026-04-26 16:25 50.70946 7.52113 3497 ft 232 kts 231°
2026-04-26 16:25 50.70321 7.49828 3087 ft 228 kts 265°
2026-04-26 16:25 50.70418 7.47344 2989 ft 228 kts 281°
2026-04-26 16:26 50.70706 7.44880 2982 ft 226 kts 283°
2026-04-26 16:26 50.70898 7.43290 2972 ft 210 kts 283°
2026-04-26 16:26 50.71233 7.40518 2959 ft 180 kts 282°
2026-04-26 16:26 50.71456 7.38626 2976 ft 175 kts 283°
2026-04-26 16:27 50.71771 7.36776 2980 ft 175 kts 295°
2026-04-26 16:27 50.72402 7.35161 2987 ft 172 kts 313°
2026-04-26 16:27 50.73280 7.33853 2986 ft 174 kts 321°
2026-04-26 16:27 50.74221 7.32661 3026 ft 171 kts 323°
2026-04-26 16:28 50.75160 7.31518 2991 ft 171 kts 322°
2026-04-26 16:28 50.76062 7.30279 2988 ft 172 kts 319°
2026-04-26 16:28 50.76944 7.28991 2988 ft 173 kts 318°
2026-04-26 16:28 50.77830 7.27708 2993 ft 172 kts 318°
2026-04-26 16:29 50.78703 7.26408 2991 ft 172 kts 317°
2026-04-26 16:29 50.79578 7.25148 2948 ft 167 kts 319°
2026-04-26 16:29 50.80473 7.23825 2292 ft 184 kts 317°
2026-04-26 16:29 50.81383 7.22442 1736 ft 187 kts 318°
2026-04-26 16:30 50.82418 7.21024 1014 ft 200 kts 320°
2026-04-26 16:30 50.83430 7.19598 693 ft 184 kts 317°
2026-04-26 16:30 50.84281 7.18333 602 ft 155 kts 317°
2026-04-26 16:30 50.85037 7.17289 471 ft 136 kts 319°
2026-04-26 16:31 50.85699 7.16312 335 ft 125 kts 318°
2026-04-26 16:31 50.86282 7.15458 300 ft 100 kts 318°
2026-04-26 16:31 50.86695 7.14867 277 ft 45 kts 318°
2026-04-26 16:31 50.86868 7.14497 269 ft 41 kts 286°
2026-04-26 16:32 50.86891 7.14310 264 ft 1 kts 280°
2026-04-26 16:32 50.86893 7.14288 263 ft 5 kts 280°
2026-04-26 16:32 50.86897 7.14254 262 ft 1 kts 281°
2026-04-26 16:32 50.86902 7.14218 262 ft 0 kts 281°
2026-04-26 16:33 50.86903 7.14208 262 ft 2 kts 281°
2026-04-26 16:33 50.86909 7.14155 261 ft 7 kts 281°
2026-04-26 16:33 50.86922 7.14097 261 ft 10 kts 298°
2026-04-26 16:33 50.87019 7.13942 252 ft 17 kts 317°
2026-04-26 16:34 50.87121 7.13794 247 ft 22 kts 319°
2026-04-26 16:34 50.87230 7.13640 243 ft 15 kts 317°
2026-04-26 16:34 50.87317 7.13510 240 ft 20 kts 316°
2026-04-26 16:34 50.87428 7.13345 239 ft 23 kts 319°
2026-04-26 16:35 50.87508 7.13232 239 ft 12 kts 318°
2026-04-26 16:35 50.87579 7.13130 239 ft 16 kts 317°
2026-04-26 16:35 50.87668 7.13003 239 ft 19 kts 317°
2026-04-26 16:35 50.87762 7.12865 239 ft 15 kts 315°
2026-04-26 16:36 50.87785 7.12740 238 ft 0 kts 270°
2026-04-26 16:36 50.87786 7.12708 238 ft 9 kts 271°
2026-04-26 16:36 50.87791 7.12617 238 ft 9 kts 281°
2026-04-26 16:37 50.87807 7.12530 238 ft 6 kts 288°
2026-04-26 16:37 50.87818 7.12473 238 ft 0 kts 288°
2026-04-26 16:37 50.87819 7.12466 238 ft 4 kts 286°
2026-04-26 16:38 50.87821 7.12459 238 ft 0 kts 286°
2026-04-26 16:38 50.87823 7.12449 238 ft 4 kts 286°
2026-04-26 16:38 50.87823 7.12446 238 ft 0 kts 286°